Location: High Meadows Obseravatory
(40.7417°N, 111.5713°W)
Time: 03:48:31
(UTC-07:00)

BlueWalker 3 - Pass Details

Date: 09 December 2022
Orbit: 499 x 517 km, 53.2° (Epoch: 01 February)

Event Time Altitude Azimuth Distance (km) Brightness Sun altitude
Rises 19:43:15 0° 301° (WNW) 2,613 6.3 -30.3°
Reaches altitude 10° 19:45:37 10° 291° (WNW) 1,720 5.4 -30.8°
Enters shadow 19:47:17 21° 274° (W) 1,173 4.4 -31.1°
